TimeMDT,TemperatureF,Dew PointF,Humidity,Sea Level PressureIn,VisibilityMPH,Wind Direction,Wind SpeedMPH,Gust SpeedMPH,PrecipitationIn,Events,Conditions,WindDirDegrees,DateUTC
12:53 AM,30.9,10.9,43,30.11,10.0,Calm,Calm,-,N/A,,Clear,0,2013-04-04 06:53:00
1:53 AM,26.1,8.1,47,30.14,10.0,Calm,Calm,-,N/A,,Clear,0,2013-04-04 07:53:00
2:53 AM,24.1,8.1,51,30.15,10.0,ENE,4.6,-,N/A,,Clear,70,2013-04-04 08:53:00
3:53 AM,21.9,8.1,55,30.16,10.0,ENE,3.5,-,N/A,,Clear,70,2013-04-04 09:53:00
4:53 AM,25.0,10.9,55,30.14,10.0,Calm,Calm,-,N/A,,Clear,0,2013-04-04 10:53:00
5:53 AM,24.1,10.9,57,30.17,10.0,Calm,Calm,-,N/A,,Clear,0,2013-04-04 11:53:00
6:53 AM,19.0,9.0,65,30.21,10.0,Calm,Calm,-,N/A,,Clear,0,2013-04-04 12:53:00
7:53 AM,28.9,12.9,51,30.18,10.0,ENE,4.6,-,N/A,,Clear,70,2013-04-04 13:53:00
8:53 AM,39.9,17.1,40,30.14,10.0,NE,5.8,-,N/A,,Clear,40,2013-04-04 14:53:00
9:53 AM,50.0,19.0,29,30.10,10.0,Calm,Calm,-,N/A,,Clear,0,2013-04-04 15:53:00
10:53 AM,55.9,18.0,23,30.13,10.0,Calm,Calm,-,N/A,,Clear,0,2013-04-04 16:53:00
11:53 AM,61.0,17.1,18,30.12,10.0,Variable,3.5,-,N/A,,Clear,0,2013-04-04 17:53:00
12:53 PM,62.1,12.9,15,30.09,10.0,SE,4.6,-,N/A,,Clear,130,2013-04-04 18:53:00
1:53 PM,64.0,10.0,12,30.08,10.0,Calm,Calm,-,N/A,,Clear,0,2013-04-04 19:53:00
2:53 PM,66.9,12.0,12,30.04,10.0,Variable,5.8,-,N/A,,Clear,0,2013-04-04 20:53:00
3:53 PM,68.0,10.0,11,30.03,10.0,WSW,5.8,-,N/A,,Clear,250,2013-04-04 21:53:00
4:53 PM,68.0,10.0,11,29.99,10.0,West,9.2,16.1,N/A,,Clear,260,2013-04-04 22:53:00
5:53 PM,69.1,8.1,9,29.97,10.0,SW,9.2,-,N/A,,Clear,220,2013-04-04 23:53:00
6:53 PM,66.0,5.0,9,30.03,10.0,WSW,10.4,-,N/A,,Clear,250,2013-04-05 00:53:00
7:53 PM,57.9,5.0,12,30.03,10.0,SW,5.8,-,N/A,,Clear,230,2013-04-05 01:53:00
8:53 PM,52.0,5.0,15,30.01,10.0,Calm,Calm,-,N/A,,Clear,0,2013-04-05 02:53:00
9:53 PM,43.0,3.9,20,30.01,10.0,NE,4.6,-,N/A,,Clear,50,2013-04-05 03:53:00
10:53 PM,39.9,3.9,22,30.00,10.0,Calm,Calm,-,N/A,,Clear,0,2013-04-05 04:53:00
11:53 PM,43.0,6.1,22,29.95,10.0,NE,3.5,-,N/A,,Clear,40,2013-04-05 05:53:00